D1965 Weather Reports


Display with metric or nautical units.
time (UTC)temp
F
wind
direction
speed
MPH
gust
MPH
rain 1hr
in
rain 24hr
in
rain mn
in
humidity
%
barometer
mb
20191016094001 49 257 2.0 10.0 0.01 0.01 0.01 92 1001.1
20191016093501 49 280 1.0 4.0 0.00 0.00 0.00 94 1001.1
20191016093002 48 278 1.0 2.0 0.00 0.00 0.00 95 1001.1
20191016092501 -90 278 1.0 2.0 0.00 0.00 0.00 100 1001.2
20191016092001 -90 278 1.0 2.0 0.00 0.00 0.00 100 1001.2
20191016091501 -90 278 1.0 2.0 0.00 0.00 0.00 100 1001.2
20191016091001 -90 278 1.0 2.0 0.00 0.00 0.00 100 1001.2
20191016090501 -90 278 1.0 2.0 0.00 0.00 0.00 100 1001.1
20191016090005 -90 278 1.0 2.0 0.00 0.00 0.00 100 1001.2
20191016085501 -90 278 1.0 2.0 0.00 0.00 0.00 100 1001.1
20191016085001 -90 278 1.0 2.0 0.00 0.00 0.00 100 1001.1
20191016084501 -90 278 1.0 2.0 0.00 0.00 0.00 100 1000.3
20191016084001 -90 278 1.0 2.0 0.00 0.00 0.00 100 1000.3
20191016083502 -90 270 1.0 2.0 0.00 0.00 0.00 100 1000.3
20191016083000 44 135 1.0 7.0 0.00 0.00 0.00 99 1000.8
20191016082501 55 135 1.0 7.0 0.00 0.00 0.00 89 1000.8
20191016082002 55 135 1.0 7.0 0.00 0.00 0.00 89 1000.7
20191016081501 55 135 1.0 7.0 0.00 0.00 0.00 89 1000.7
20191016081001 55 135 1.0 7.0 0.00 0.00 0.00 89 1000.5
20191016080501 55 135 1.0 7.0 0.00 0.00 0.00 89 1000.5
20191016080001 55 135 1.0 7.0 0.00 0.00 0.00 89 1000.6
20191016075501 55 135 1.0 7.0 0.00 0.00 0.00 89 1000.5
20191016075001 55 135 1.0 7.0 0.00 0.00 0.00 89 1000.4
20191016074502 55 135 1.0 7.0 0.00 0.00 0.00 89 1000.3
20191016074001 55 135 1.0 7.0 0.00 0.00 0.00 89 1000.4
20191016073501 55 135 1.0 7.0 0.00 0.00 0.00 89 1000.3
20191016073001 55 135 1.0 7.0 0.00 0.00 0.00 89 1000.2
20191016072501 55 135 1.0 7.0 0.00 0.00 0.00 89 1000.2
20191016072001 55 135 1.0 7.0 0.00 0.00 0.00 89 1000.1
20191016071501 55 135 1.0 7.0 0.00 0.00 0.00 89 1000.1
20191016071002 55 135 1.0 7.0 0.00 0.00 0.00 89 1000.1
20191016070501 55 135 1.0 7.0 0.00 0.00 0.00 89 1000.0
20191016070001 55 135 1.0 7.0 0.00 0.00 0.00 89 999.8
20191016065501 55 135 1.0 7.0 0.00 0.00 0.00 89 999.8
20191016065001 55 135 1.0 7.0 0.00 0.00 0.00 89 999.7
20191016064502 55 135 1.0 7.0 0.00 0.00 0.00 89 999.7
20191016064001 55 135 1.0 7.0 0.00 0.00 0.00 89 999.6
20191016063502 55 135 1.0 7.0 0.00 0.00 0.00 89 999.6
20191016063001 55 135 1.0 7.0 0.00 0.00 0.00 89 999.5
20191016062501 55 135 1.0 7.0 0.00 0.00 0.00 89 999.5
20191016062002 55 135 1.0 7.0 0.00 0.00 0.00 89 999.5
20191016061501 55 135 1.0 7.0 0.00 0.00 0.00 89 999.4
20191016061001 55 135 1.0 7.0 0.00 0.00 0.00 89 999.4
20191016060502 55 135 1.0 7.0 0.00 0.00 0.00 89 999.4
20191016060002 55 135 1.0 7.0 0.00 0.00 0.00 89 999.4
20191016055501 55 135 1.0 7.0 0.00 0.00 0.00 89 999.3
20191016055002 55 135 1.0 7.0 0.00 0.00 0.00 89 999.3
20191016054501 55 135 1.0 7.0 0.00 0.00 0.00 89 999.2
20191016054001 55 135 1.0 7.0 0.00 0.00 0.00 89 999.1
20191016053501 55 135 1.0 7.0 0.00 0.00 0.00 89 999.2
20191016053001 55 135 1.0 7.0 0.00 0.00 0.00 89 999.2
20191016052502 55 135 1.0 7.0 0.00 0.00 0.00 89 999.1
20191016052001 55 135 1.0 7.0 0.00 0.00 0.00 89 999.0
20191016051501 55 135 1.0 7.0 0.00 0.00 0.00 89 999.0
20191016051002 55 135 1.0 7.0 0.00 0.00 0.00 89 998.8
20191016050501 55 135 1.0 7.0 0.00 0.00 0.00 89 998.7
20191016050002 55 135 1.0 7.0 0.00 0.00 0.00 89 998.6
20191016045501 55 135 1.0 7.0 0.00 0.00 0.00 89 998.6
20191016045002 55 135 1.0 7.0 0.00 0.00 0.00 89 998.6
20191016044501 55 135 1.0 7.0 0.00 0.00 0.00 89 998.5
20191016044001 55 135 1.0 7.0 0.00 0.00 0.00 89 998.5
20191016043502 55 135 1.0 7.0 0.00 0.00 0.00 89 998.3
20191016043001 55 135 1.0 7.0 0.00 0.00 0.00 89 998.3
20191016042501 55 135 1.0 7.0 0.00 0.00 0.00 89 998.2
20191016042002 55 135 1.0 7.0 0.00 0.00 0.00 89 998.2
20191016041502 55 135 1.0 7.0 0.00 0.00 0.00 89 998.2
20191016041001 55 135 1.0 7.0 0.00 0.00 0.00 89 998.1
20191016040501 55 135 1.0 7.0 0.00 0.00 0.00 89 998.1
20191016040002 55 135 1.0 7.0 0.00 0.00 0.00 89 998.0
20191016035501 55 135 1.0 7.0 0.00 0.00 0.00 89 997.9
20191016035002 55 135 1.0 7.0 0.00 0.00 0.00 89 997.8
20191016034502 55 135 1.0 7.0 0.00 0.00 0.00 89 997.8
20191016034001 55 135 1.0 7.0 0.00 0.00 0.00 89 997.7
20191016033501 55 135 1.0 7.0 0.00 0.00 0.00 89 997.6
20191016033001 55 135 1.0 7.0 0.00 0.00 0.00 89 997.5
20191016032501 55 135 1.0 7.0 0.00 0.00 0.00 89 997.6
20191016032002 55 135 1.0 7.0 0.00 0.00 0.00 89 997.5
20191016031501 55 135 1.0 7.0 0.00 0.00 0.00 89 997.4
20191016031003 55 135 1.0 7.0 0.00 0.00 0.00 89 997.4
20191016030501 55 135 1.0 7.0 0.00 0.00 0.00 89 997.3
20191016030002 55 135 1.0 7.0 0.00 0.00 0.00 89 997.3
20191016025502 55 135 1.0 7.0 0.00 0.00 0.00 89 997.3
20191016025001 55 135 1.0 7.0 0.00 0.00 0.00 89 997.2
20191016024502 55 135 1.0 7.0 0.00 0.00 0.00 89 997.2
20191016024002 55 135 1.0 7.0 0.00 0.00 0.00 89 997.1
20191016023502 55 135 1.0 7.0 0.00 0.00 0.00 89 997.2
20191016023002 55 135 1.0 7.0 0.00 0.00 0.00 89 997.3
20191016022501 55 135 1.0 7.0 0.00 0.00 0.00 89 997.1
20191016022002 55 135 1.0 7.0 0.00 0.00 0.00 89 997.1
20191016021502 55 135 1.0 7.0 0.00 0.00 0.00 89 997.1
20191016021001 55 135 1.0 7.0 0.00 0.00 0.00 89 997.2
20191016020502 55 135 1.0 7.0 0.00 0.00 0.00 89 997.2
20191016020001 55 135 1.0 7.0 0.00 0.00 0.00 89 997.2
20191016015501 55 135 1.0 7.0 0.00 0.00 0.00 89 997.1
20191016015002 55 135 1.0 7.0 0.00 0.00 0.00 89 997.1
20191016014501 55 135 1.0 7.0 0.00 0.00 0.00 89 997.2
20191016014002 55 135 1.0 7.0 0.00 0.00 0.00 89 997.1
20191016013502 55 135 1.0 7.0 0.00 0.00 0.00 89 997.0
20191016013001 55 135 1.0 7.0 0.00 0.00 0.00 89 996.9
20191016012502 55 135 1.0 7.0 0.00 0.00 0.00 89 996.8
20191016012002 55 135 1.0 7.0 0.00 0.00 0.00 89 996.8
20191016011501 55 135 1.0 7.0 0.00 0.00 0.00 89 996.8
20191016011002 55 135 1.0 7.0 0.00 0.00 0.00 89 996.8
20191016010501 55 135 1.0 7.0 0.00 0.00 0.00 89 996.7
20191016010003 55 135 1.0 7.0 0.00 0.00 0.00 89 996.6
20191016005502 55 135 1.0 7.0 0.00 0.00 0.00 89 996.5
20191016005001 55 135 1.0 7.0 0.00 0.00 0.00 89 996.5
20191016004501 55 135 1.0 7.0 0.00 0.00 0.00 89 996.4
20191016004002 55 135 1.0 7.0 0.00 0.00 0.00 89 996.4
20191016003502 55 135 1.0 7.0 0.00 0.00 0.00 89 996.4
20191016003003 55 135 1.0 7.0 0.00 0.00 0.00 89 996.4
20191016002501 55 135 1.0 7.0 0.00 0.00 0.00 89 996.4
20191016002002 55 135 1.0 7.0 0.00 0.00 0.00 89 996.3
20191016001501 55 135 1.0 7.0 0.00 0.00 0.00 89 996.2
20191016001002 55 135 1.0 7.0 0.00 0.00 0.00 89 996.2
20191016000502 55 135 1.0 7.0 0.00 0.00 0.00 89 996.2
20191016000002 55 135 1.0 7.0 0.00 0.00 0.00 89 996.1
20191015235502 55 135 1.0 7.0 0.00 0.00 0.00 89 996.2
20191015235002 55 135 1.0 7.0 0.00 0.00 0.00 89 996.0
20191015234502 55 135 1.0 7.0 0.00 0.00 0.00 89 996.0
20191015234001 55 135 1.0 7.0 0.00 0.00 0.00 89 996.0
20191015233502 55 135 1.0 7.0 0.00 0.00 0.00 89 996.0
20191015233001 55 135 1.0 7.0 0.00 0.00 0.00 89 995.9
20191015232503 55 135 1.0 7.0 0.00 0.00 0.00 89 996.0
20191015232001 55 135 1.0 7.0 0.00 0.00 0.00 89 995.9
20191015231502 55 135 1.0 7.0 0.00 0.00 0.00 89 995.8
20191015231001 55 135 1.0 7.0 0.00 0.00 0.00 89 995.8
20191015230501 55 135 1.0 7.0 0.00 0.00 0.00 89 995.7
20191015230003 55 135 1.0 7.0 0.00 0.00 0.00 89 995.7
20191015225501 55 135 1.0 7.0 0.00 0.00 0.00 89 995.5
20191015225002 55 135 1.0 7.0 0.00 0.00 0.00 89 995.5
20191015224501 55 135 1.0 7.0 0.00 0.00 0.00 89 995.3
20191015224002 55 135 1.0 7.0 0.00 0.00 0.00 89 995.2
20191015223501 55 135 1.0 7.0 0.00 0.00 0.00 89 995.1
20191015223002 55 135 1.0 7.0 0.00 0.00 0.00 89 994.8
20191015222501 55 135 1.0 7.0 0.00 0.00 0.00 89 994.7
20191015222002 55 135 1.0 7.0 0.00 0.00 0.00 89 994.3
20191015221502 55 135 1.0 7.0 0.00 0.00 0.00 89 994.2
20191015221002 55 135 1.0 7.0 0.00 0.00 0.00 89 994.1
20191015220502 55 135 1.0 7.0 0.00 0.00 0.00 89 994.1
20191015220001 55 135 1.0 7.0 0.00 0.00 0.00 89 994.1
20191015215502 55 135 1.0 7.0 0.00 0.00 0.00 89 994.1
20191015215003 55 135 1.0 7.0 0.00 0.00 0.00 89 994.1
20191015214502 55 135 1.0 7.0 0.00 0.00 0.00 89 994.2
20191015214001 55 135 1.0 7.0 0.00 0.00 0.00 89 994.3
20191015213502 55 135 1.0 7.0 0.00 0.00 0.00 89 994.3
20191015213001 55 135 1.0 7.0 0.00 0.00 0.00 89 994.3
20191015212501 55 135 1.0 7.0 0.00 0.00 0.00 89 994.3
20191015212002 55 135 1.0 7.0 0.00 0.00 0.00 89 994.3
20191015211502 55 135 1.0 7.0 0.00 0.00 0.00 89 994.4
20191015211002 55 135 1.0 7.0 0.00 0.00 0.00 89 994.5
20191015210502 55 135 1.0 7.0 0.00 0.00 0.00 89 994.5
20191015210003 55 135 1.0 7.0 0.00 0.00 0.00 89 994.5
20191015205502 55 135 1.0 7.0 0.00 0.00 0.00 89 994.6
20191015205003 55 135 1.0 7.0 0.00 0.00 0.00 89 994.6
20191015204502 55 135 1.0 7.0 0.00 0.00 0.00 89 994.7
20191015204002 55 135 1.0 7.0 0.00 0.00 0.00 89 994.7
20191015203502 55 135 1.0 7.0 0.00 0.00 0.00 89 994.8
20191015203001 55 135 1.0 7.0 0.00 0.00 0.00 89 994.9
20191015202502 55 135 1.0 7.0 0.00 0.00 0.00 89 994.8
20191015202001 55 135 1.0 7.0 0.00 0.00 0.00 89 994.9
20191015201503 55 135 1.0 7.0 0.00 0.00 0.00 89 994.7
20191015201003 55 135 1.0 7.0 0.00 0.00 0.00 89 994.9
20191015200502 55 135 1.0 7.0 0.00 0.00 0.00 89 994.9
20191015200003 55 135 1.0 7.0 0.00 0.00 0.00 89 994.9
20191015195502 55 135 1.0 7.0 0.00 0.00 0.00 89 994.9
20191015195001 55 135 1.0 7.0 0.00 0.00 0.00 89 994.9
20191015194502 55 135 1.0 7.0 0.00 0.00 0.00 89 995.1
20191015194003 55 135 1.0 7.0 0.00 0.00 0.00 89 995.1
20191015193502 55 135 1.0 7.0 0.00 0.00 0.00 89 995.3
20191015193003 55 135 1.0 7.0 0.00 0.00 0.00 89 995.3
20191015192502 55 135 1.0 7.0 0.00 0.00 0.00 89 995.4
20191015192002 55 135 1.0 7.0 0.00 0.00 0.00 89 995.6
20191015191502 55 135 1.0 7.0 0.00 0.00 0.00 89 995.5
20191015191003 55 135 1.0 7.0 0.00 0.00 0.00 89 995.6
20191015190502 55 135 1.0 7.0 0.00 0.00 0.00 89 995.7
20191015190002 55 135 1.0 7.0 0.00 0.00 0.00 89 995.7
20191015185502 55 135 1.0 7.0 0.00 0.00 0.00 89 995.9
20191015185003 55 135 1.0 7.0 0.00 0.00 0.00 89 996.1
20191015184502 55 135 1.0 7.0 0.00 0.00 0.00 89 996.2
20191015184002 55 135 1.0 7.0 0.00 0.00 0.00 89 996.3
20191015183502 55 135 1.0 7.0 0.00 0.00 0.00 89 996.4
20191015183003 55 135 1.0 7.0 0.00 0.00 0.00 89 996.4
20191015182503 55 135 1.0 7.0 0.00 0.00 0.00 89 996.4
20191015182002 55 135 1.0 7.0 0.00 0.00 0.00 89 996.5
20191015181502 55 135 1.0 7.0 0.00 0.00 0.00 89 996.6
20191015181002 55 135 1.0 7.0 0.00 0.00 0.00 89 996.6
20191015180502 55 135 1.0 7.0 0.00 0.00 0.00 89 996.7
20191015180002 55 135 1.0 7.0 0.00 0.00 0.00 89 996.8
20191015175501 55 135 1.0 7.0 0.00 0.00 0.00 89 996.8
20191015175002 55 135 1.0 7.0 0.00 0.00 0.00 89 996.8
20191015174501 55 135 1.0 7.0 0.00 0.00 0.00 89 996.9
20191015174002 55 135 1.0 7.0 0.00 0.00 0.00 89 996.9
20191015173502 55 135 1.0 7.0 0.00 0.00 0.00 89 996.8
20191015173001 55 135 1.0 7.0 0.00 0.00 0.00 89 996.8
20191015172502 55 135 1.0 7.0 0.00 0.00 0.00 89 996.8
20191015172003 55 135 1.0 7.0 0.00 0.00 0.00 89 996.8
20191015171502 55 135 1.0 7.0 0.00 0.00 0.00 89 997.0
20191015171002 55 135 1.0 7.0 0.00 0.00 0.00 89 997.1
20191015170502 55 135 1.0 7.0 0.00 0.00 0.00 89 997.2
20191015170003 55 135 1.0 7.0 0.00 0.00 0.00 89 997.0
20191015165502 55 135 1.0 7.0 0.00 0.00 0.00 89 997.1
20191015165002 55 135 1.0 7.0 0.00 0.00 0.00 89 997.2
20191015164502 55 135 1.0 7.0 0.00 0.00 0.00 89 997.4
20191015164003 55 135 1.0 7.0 0.00 0.00 0.00 89 997.4
20191015163502 55 135 1.0 7.0 0.00 0.00 0.00 89 997.4
20191015163003 55 135 1.0 7.0 0.00 0.00 0.00 89 997.5
20191015162502 55 117 1.0 9.0 0.00 0.00 0.00 89 997.5
20191015162003 54 141 2.0 9.0 0.00 0.00 0.00 90 997.6
20191015161503 54 178 2.0 10.0 0.00 0.00 0.00 89 997.6
20191015161003 54 170 2.0 10.0 0.00 0.00 0.00 89 997.6
20191015160502 54 160 2.0 9.0 0.00 0.00 0.00 89 997.6
20191015160002 54 163 2.0 7.0 0.00 0.00 0.00 90 997.8
20191015155502 54 184 2.0 9.0 0.00 0.00 0.00 90 997.8
20191015155003 54 164 2.0 9.0 0.00 0.00 0.00 90 997.9
20191015154503 54 143 2.0 7.0 0.00 0.00 0.00 90 997.8
20191015154002 54 156 2.0 8.0 0.00 0.00 0.00 90 997.7
20191015153502 54 146 2.0 8.0 0.00 0.00 0.00 90 997.8
20191015153003 54 117 2.0 9.0 0.00 0.00 0.00 89 997.9
20191015152502 54 110 2.0 9.0 0.00 0.00 0.00 89 998.1
20191015152002 54 160 2.0 6.0 0.00 0.00 0.00 89 998.3
20191015151503 54 179 2.0 9.0 0.00 0.00 0.00 88 998.4
20191015151003 54 160 1.0 9.0 0.00 0.00 0.00 88 998.6
20191015150502 54 162 1.0 5.0 0.00 0.00 0.00 87 998.6
20191015150002 54 147 1.0 6.0 0.00 0.00 0.00 87 998.8
20191015145502 54 133 1.0 6.0 0.00 0.00 0.00 87 998.9
20191015145002 54 187 1.0 6.0 0.00 0.00 0.00 86 999.0
20191015144503 54 190 1.0 5.0 0.00 0.00 0.00 86 999.1
20191015144002 54 176 1.0 5.0 0.00 0.00 0.00 87 999.2
20191015143503 54 128 1.0 5.0 0.00 0.00 0.00 87 999.2
20191015143003 54 109 1.0 5.0 0.00 0.00 0.00 86 999.3
20191015142502 54 155 1.0 3.0 0.00 0.00 0.00 86 999.3
20191015142002 54 199 1.0 4.0 0.00 0.00 0.00 85 999.4
20191015141503 54 228 1.0 5.0 0.00 0.00 0.00 85 999.5
20191015141002 54 182 1.0 8.0 0.00 0.00 0.00 85 999.4
20191015140503 54 201 2.0 8.0 0.00 0.00 0.00 84 999.6
20191015140002 54 234 2.0 7.0 0.00 0.00 0.00 84 999.6
20191015135502 54 243 2.0 9.0 0.00 0.00 0.00 84 999.6
20191015135002 54 249 2.0 9.0 0.00 0.00 0.00 83 999.7
20191015134502 55 234 2.0 6.0 0.00 0.00 0.00 83 999.7
20191015134003 55 236 2.0 6.0 0.00 0.00 0.00 82 999.7
20191015133502 55 236 2.0 7.0 0.00 0.00 0.00 82 999.7
20191015133003 55 249 2.0 7.0 0.00 0.00 0.00 81 999.9
20191015132502 56 259 2.0 7.0 0.00 0.00 0.00 81 999.9
20191015132003 56 250 2.0 7.0 0.00 0.00 0.00 81 1000.0
20191015131502 56 220 2.0 7.0 0.00 0.00 0.00 80 1000.0
20191015131002 56 186 1.0 5.0 0.00 0.00 0.00 83 1000.1
20191015130502 55 182 1.0 8.0 0.00 0.00 0.00 82 1000.1
20191015130004 55 191 2.0 8.0 0.00 0.00 0.00 82 1000.1
20191015125502 55 241 2.0 7.0 0.00 0.00 0.00 82 1000.3
20191015125002 54 216 2.0 7.0 0.00 0.00 0.00 81 1000.2
20191015124502 54 224 2.0 7.0 0.00 0.00 0.00 82 1000.2
20191015124002 54 256 1.0 6.0 0.00 0.00 0.00 83 1000.3
20191015123503 54 256 1.0 6.0 0.00 0.00 0.00 83 1000.3
20191015123003 54 251 1.0 5.0 0.00 0.00 0.00 83 1000.4
20191015122502 54 224 1.0 5.0 0.00 0.00 0.00 84 1000.5
20191015122002 54 239 1.0 4.0 0.00 0.00 0.00 85 1000.5
20191015121503 54 251 1.0 5.0 0.00 0.00 0.00 85 1000.6
20191015121002 54 254 1.0 5.0 0.00 0.00 0.00 84 1000.6
20191015120503 54 261 1.0 5.0 0.00 0.00 0.00 83 1000.6
20191015120004 54 260 1.0 5.0 0.00 0.00 0.00 82 1000.6
20191015115502 54 256 1.0 5.0 0.00 0.00 0.00 82 1000.7
20191015115002 55 241 1.0 5.0 0.00 0.00 0.00 83 1000.7
20191015114502 54 230 1.0 5.0 0.00 0.00 0.00 82 1000.7
20191015114003 54 251 1.0 5.0 0.00 0.00 0.00 83 1000.8
20191015113503 54 258 1.0 4.0 0.00 0.00 0.00 83 1000.7
20191015113003 54 269 1.0 4.0 0.00 0.00 0.00 83 1000.8
20191015112504 54 269 2.0 5.0 0.00 0.00 0.00 84 1000.8
20191015112003 54 262 2.0 8.0 0.00 0.00 0.00 83 1000.8
20191015111502 54 259 2.0 8.0 0.00 0.00 0.00 82 1000.8
20191015111003 54 262 3.0 11.0 0.00 0.00 0.00 85 1000.9
20191015110502 54 259 3.0 11.0 0.00 0.00 0.00 84 1001.0
20191015110003 54 258 2.0 8.0 0.00 0.00 0.00 85 1000.9
20191015105503 55 258 1.0 6.0 0.00 0.00 0.00 86 1001.1
20191015105003 55 249 1.0 6.0 0.00 0.00 0.00 87 1001.0
20191015104503 54 230 1.0 6.0 0.00 0.00 0.00 87 1000.9
20191015104002 54 225 1.0 3.0 0.00 0.00 0.00 85 1001.1
20191015103504 54 234 1.0 3.0 0.00 0.00 0.00 87 1001.1
20191015103002 54 249 1.0 6.0 0.00 0.00 0.00 86 1001.2
20191015102504 54 257 1.0 6.0 0.00 0.00 0.00 87 1001.2
20191015102002 53 237 1.0 3.0 0.00 0.00 0.00 88 1001.3
20191015101502 53 229 1.0 3.0 0.00 0.00 0.00 89 1001.3
20191015101003 53 220 0.0 3.0 0.00 0.00 0.00 90 1001.4
20191015100502 53 220 0.0 3.0 0.00 0.00 0.00 91 1001.4
20191015100003 52 220 0.0 3.0 0.00 0.00 0.00 93 1001.4
20191015095503 52 220 0.0 3.0 0.00 0.00 0.00 95 1001.4
20191015095003 52 221 0.0 3.0 0.00 0.00 0.00 96 1001.4
20191015094503 52 0 0.0 0.0 0.00 0.00 0.00 97 1001.4